Flag for U.S.A. Weather past 2 weeks in Abilene, Texas, U.S.A.

Now
74 °F

Partly sunny.


Feels Like: 77 °F
Forecast: 60 / 80 °F
Wind: 8 mph from Southwest

Location: Abilene Regional Airport

Current Time: Oct 20, 2014 at 1:06:05 PM

Latest Report: Oct 20, 2014 at 11:52 AM


Visibility: 10 mi

Pressure: 30.06 "Hg

Humidity: 62%

Dew point: 60 °F

Location of AbileneLocation

Historic Weather in Abilene — Graph

°F

Abilene temperature yesterday

Maximum temperature yesterday: 80 °F (at 2:52 PM)
Minimum temperature yesterday: 59 °F (at 8:02 AM)
Average temperature yesterday: 69 °F

Past Weeks' High & Low Weather Summary

 TemperatureHumidityPressure
High98 °F (Oct 7, 3:52 PM)96% (Oct 10, 8:59 PM)30.19 "Hg (Oct 10, 8:59 PM)
Low50 °F (Oct 12, 3:52 AM)14% (Oct 7, 3:52 PM)29.57 "Hg (Oct 12, 8:52 PM)
Average71 °F54%29.91 "Hg
* Reported Oct 5 11:52 AM — Oct 20 11:52 AM, Abilene, Weather by CustomWeather, © 2014

Note: Actual official high and low records may vary slightly from our data, if they occured in-between our weather recording intervals... More about our weather records

Advertising

Abilene weather history for previous 24 hours

 ConditionsComfort  
Time TempWeatherWind HumidityBarometerVisibility
11:52 AM
Oct 20
74 °FPartly sunny.8 mph62%30.06 "Hg10 mi
10:52 AM71 °FSunny.12 mph66%30.07 "Hg10 mi
9:52 AM67 °FSunny.7 mph79%30.07 "Hg10 mi
8:52 AM62 °FSunny.7 mph90%30.06 "Hg6 mi
7:52 AM60 °FClear.8 mph90%30.03 "Hg6 mi
6:52 AM61 °FClear.6 mph90%30.01 "Hg8 mi
5:52 AM62 °FClear.5 mph86%30.00 "Hg10 mi
4:52 AM63 °FClear.6 mph87%29.99 "Hg10 mi
3:52 AM64 °FClear.8 mph84%29.99 "Hg10 mi
2:52 AM65 °FClear.13 mph81%29.99 "Hg10 mi
1:52 AM65 °FClear.9 mph81%29.99 "Hg10 mi
12:52 AM66 °FClear.10 mph78%29.99 "Hg10 mi
11:52 PM
Oct 19
68 °FClear.13 mph73%30.00 "Hg10 mi
9:52 PM69 °FClear.14 mph68%29.99 "Hg10 mi
8:52 PM70 °FClear.10 mph66%29.99 "Hg10 mi
7:52 PM72 °FSunny.8 mph61%29.99 "Hg10 mi
6:52 PM75 °FSunny.9 mph55%29.98 "Hg10 mi
5:52 PM78 °FSunny.10 mph48%29.98 "Hg10 mi
4:52 PM79 °FSunny.9 mph47%29.98 "Hg10 mi
3:52 PM79 °FPartly sunny.6 mph47%29.99 "Hg10 mi
2:52 PM80 °FBroken clouds.7 mph47%30.00 "Hg10 mi
1:52 PM77 °FPartly sunny.8 mph56%30.04 "Hg10 mi
Weather by CustomWeather, © 2014

See weather overviewHow to use our weather pages